CZ-6A DEB

Satellite information

Favourite Embed

Satellite Type and Status

DEBRISIN ORBIT

Key statistics

Satellite CZ-6A DEB at a glance.

Uptime

390

Days in orbit

Revolutions

≈ 14.9

Per day

Orbit

LEO

Low Earth Orbit

Inclination

89.1

Latest

Satellite identification and parameters

Extended collection of information and parameters for CZ-6A DEB.

Object identification

Identified? True

Debris? True

Object name: CZ-6A DEB

International designator: 2024-140KH

Object number (NORAD): 60878

Object ID (CCSDS): 60878

Country: PEOPLES REPUBLIC OF CHINA (PRC)

Current information (Y/N): Y

RCS size: SMALL

Orbital parameters

Period: 96.767 minutes

Inclination: 89.0764 deg

SMA: 6981.963 km

Apoapsis: 690.769 km

Periapsis: 516.887 km

RAAN: 306.821 deg

Eccentricy: 0.01245219

Argument of periapsis: 104.9566 deg

Mean anomaly: 256.5486 deg

Mean motion: 14.8811488 rev/day

Mean motion (dot): 0.00040159 rev/day2

B* drag term: 0.003761868 1/REarth

Two-line elements (TLE)

Creation date: Aug. 31, 2025, 2:26 a.m.

Reference frame: TEME

Reference center: EARTH

Epoch: Aug. 30, 2025, 10:13 p.m. UTC

TLE line 0: 0 CZ-6A DEB

TLE line 1: 1 60878U 24140KH 25242.92627747 .00040159 00000-0 37619-2 0 9996

TLE line 2: 2 60878 89.0764 306.8210 0124522 104.9566 256.5486 14.88114880 56068

Live tracking on map

Real-time ground track for satellite CZ-6A DEB.

In-orbit conjunctions

A list of the most updated potential collisions computed for object CZ-6A DEB.

Target Orbit TCA Probability of collision Miss distance Type
PEGASUS DEB LEO 2025-02-16 19:12:21 0.0005152384 219.0 (m) DEBRIS
RESURS O1 DEB SSO 2025-01-20 10:56:39 0.0003264569 571.0 (m) DEBRIS
CZ-6A DEB LEO 2024-10-23 15:43:47 0.000631578 780.0 (m) DEBRIS
FENGYUN 1C DEB SSO 2024-10-10 06:09:26 0.000111023 869.0 (m) DEBRIS
THOR AGENA D R/B SSO 2024-09-21 06:24:17 0.0003975192 200.0 (m) ROCKET BODY

Associated space launch

18 Low Earth Orbit communication satellites with Ku, Q and V band payloads for the G60 constellation operated by Shanghai Spacecom Satellite Technology (SSST) with funding backed by the Shanghai local government. Initial constellation will consist of 1296 satellites by 2027 with long term plans to expand it to 12000 satellites.

CZ-6A DEB was lifted into orbit during the mission ‘Long March 6A | G60 Polar Group 01’, on board a Long March 6A space rocket.

The launch took place on Aug. 6, 2024, 6:42 a.m. from Launch Complex 9A.

For more information about the launch, click the button.

Launch to space Long March 6A | G60 Polar Group 01
Long March 6A | G60 Polar Group 01

Agency: N/A

Status: Launch Successful

Launch date: Aug. 6, 2024, 6:42 a.m. UTC

Rocket: Long March 6A

Launch pad: Launch Complex 9A

Location: Taiyuan Satellite Launch Center, People's Republic of China

...

Latest news about this satellite

News about space launch
Brightness of first Chinese broadband constellation satellites alarms astronomers

The first satellites of a Chinese broadband constellation are significantly brighter than those of Western systems, posing a new challenge for astronomers.

News about space launch
Chinese rocket stage breaks up into cloud of more than 700 pieces of space debris

HELSINKI — A Chinese Long March 6A rocket’s upper stage has fragmented into a cloud of over 700 pieces of space debris, adding to concerns about long-term orbital safety. China […]

News about space launch
China's Thousand Sails Megaconstellation Kicks Off with Dangerous Debris Field

China's Thousand Sails Megaconstellation Kicks Off with Dangerous Debris Field


Newsletter sign-up

Weekly statistics, charts and insights to help you stay on top of the space industry.